Location: Vihti�l�
(61.3833°N, 23.0667°E)
Time: 05:36:54
(UTC+00:00)

CZ-2D R/B - Pass Details

Date: 29 November 2020
Orbit: 520 x 538 km, 97.4° (Epoch: 22 January)

Event Time Altitude Azimuth Distance (km) Brightness Sun altitude
Rises 05:47:47 0° 17° (NNE) 2,704 6.7 -8.6°
Reaches altitude 10° 05:49:56 10° 21° (NNE) 1,810 5.9 -8.4°
Maximum altitude 05:53:49 63° 103° (ESE) 607 3.8 -8.0°
Drops below altitude 10° 05:57:41 10° 185° (S) 1,802 6.3 -7.6°
Sets 05:59:49 0° 189° (S) 2,690 7.2 -7.3°
